Waarnemingen

Advertentie
Mijn weer
Greifswalder Oie, Duitsland (10097): temperatuur & dauwpunt: 12.12.2017 15:00:00 - 18.12.2017 15:00:00 (CET)Greifswalder Oie, Duitsland (10097): temperatuur 5cm & temperatuur -5cm: 12.12.2017 15:00:00 - 18.12.2017 15:00:00 (CET)Greifswalder Oie, Duitsland (10097): temperatuur -20cm & temperatuur -100cm: 12.12.2017 15:00:00 - 18.12.2017 15:00:00 (CET)Greifswalder Oie, Duitsland (10097): water temperatuur: 12.12.2017 15:00:00 - 18.12.2017 15:00:00 (CET)Greifswalder Oie, Duitsland (10097): windsnelheid & windstoten: 12.12.2017 15:00:00 - 18.12.2017 15:00:00 (CET)Greifswalder Oie, Duitsland (10097): windrichting: 12.12.2017 15:00:00 - 18.12.2017 15:00:00 (CET)Greifswalder Oie, Duitsland (10097): luchtdruk: 12.12.2017 15:00:00 - 18.12.2017 15:00:00 (CET)Greifswalder Oie, Duitsland (10097): zicht: 12.12.2017 15:00:00 - 18.12.2017 15:00:00 (CET)Greifswalder Oie, Duitsland (10097): Zonneschijnduur: 12.12.2017 15:00:00 - 18.12.2017 15:00:00 (CET)Greifswalder Oie, Duitsland (10097): neerslag: 12.12.2017 15:00:00 - 18.12.2017 15:00:00 (CET)
Datum & Tijd tt [°C] td [°C] tt 5cm [°C] tt -5cm [°C] tt -20cm [°C] tt -100cm [°C] tw [°C] ff [km/u] ff [kn] fx [km/u] fx [kn] dd ppp [hPa] vv [km] sd [min] rr [mm]
18.12.2017 15:00:00 1,7 -2,8 0,7 0,2 1,6 6,2 3,2 21 11 29 15 ZZW 1025,8 26 60 0,0
18.12.2017 14:00:00 1,9 -3,0 2,4 0,2 1,6 6,2 3,3 20 11 29 16 Z 1025,4 15 60 0,0
18.12.2017 13:00:00 2,1 -2,7 2,9 0,1 1,6 6,2 3,3 18 10 29 16 Z 1025,1 16 60 0,0
18.12.2017 12:00:00 1,9 -2,1 1,6 0,1 1,6 6,2 3,2 16 9 27 14 Z 1025,4 19 59 0,0
18.12.2017 11:00:00 1,7 -2,1 2,2 0,1 1,6 6,2 3,1 15 8 29 16 Z 1025,7 32 10 0,0
18.12.2017 10:00:00 1,4 -2,2 1,0 0,0 1,7 6,2 3,1 17 9 27 15 Z 1025,4 44 19 0,0
18.12.2017 09:00:00 1,1 -1,8 -0,3 0,0 1,7 6,2 3,2 16 9 26 14 Z 1024,4 45 11 0,0
18.12.2017 08:00:00 1,3 -1,4 -0,1 0,1 1,7 6,2 3,1 17 9 27 15 Z 1023,7 33 0 0,0
18.12.2017 07:00:00 1,4 -2,2 0,0 0,1 1,8 6,2 3,2 17 9 27 15 Z 1022,9 58 0 0,0
18.12.2017 06:00:00 1,2 -1,8 -0,3 0,2 1,8 6,2 3,1 16 8 24 13 Z 1022,5 51 0 0,0
18.12.2017 05:00:00 1,1 -0,6 0,2 0,2 1,8 6,2 3,2 19 10 26 14 ZZW 1022,3 21 0 0,0
18.12.2017 04:00:00 0,8 -0,1 0,3 0,2 1,9 6,2 3,1 14 8 21 12 ZZW 1022,0 9 0 0,0
18.12.2017 03:00:00 1,1 -0,4 0,6 0,2 1,9 6,2 3,0 16 9 28 15 ZZW 1022,0 15 0 0,0
18.12.2017 02:00:00 1,0 -0,8 0,7 0,2 2,0 6,2 3,0 20 11 28 15 ZZW 1022,0 23 0 0,0
18.12.2017 01:00:00 0,7 -0,7 0,3 0,2 2,0 6,2 2,7 16 9 26 14 Z 1022,1 16 0 0,0
18.12.2017 00:00:00 0,6 -1,1 0,3 0,2 2,1 6,2 2,7 22 12 26 14 ZZW 1022,2 24 0 0,0
17.12.2017 23:00:00 0,5 -1,2 -0,6 0,3 2,2 6,2 2,9 16 9 24 13 ZW 1021,9 30 0 0,0
17.12.2017 22:00:00 0,6 -0,7 -0,6 0,3 2,3 6,2 3,1 17 9 21 11 WZW 1021,7 21 0 0,0
17.12.2017 21:00:00 1,1 0,2 0,0 0,4 2,4 6,3 3,4 19 10 22 12 ZW 1021,4 18 0 0,0
17.12.2017 20:00:00 1,6 -1,4 0,2 0,4 2,5 6,3 3,6 16 9 19 11 W 1020,9 70 0 0,0
17.12.2017 19:00:00 0,3 -1,7 -1,4 0,2 2,8 6,3 3,6 16 8 24 13 NW 1020,7 70 0 0,0
17.12.2017 18:00:00 1,1 -1,0 0,0 1,0 2,9 6,3 3,7 18 10 26 14 NW 1020,3 70 0 0,0
17.12.2017 17:00:00 1,7 0,0 1,2 1,3 3,1 6,3 3,7 21 11 26 14 NW 1019,7 56 0 0,0
17.12.2017 16:00:00 1,8 0,0 0,2 2,5 3,1 6,3 3,6 22 12 32 17 NW 1018,8 51 5 0,0
17.12.2017 15:00:00 2,8 1,3 2,6 3,2 3,0 6,3 3,5 24 13 29 16 NW 1018,3 48 5 0,0
17.12.2017 14:00:00 3,1 0,8 3,4 4,0 2,8 6,3 3,6 23 12 29 15 WNW 1017,6 42 22 0,0
17.12.2017 13:00:00 4,9 0,2 6,9 4,2 2,5 6,3 3,6 11 6 14 7 NNW 1017,3 70 35 0,0
17.12.2017 12:00:00 4,0 -0,7 4,0 3,2 2,3 6,3 3,5 6 3 17 9 NNW 1016,9 70 51 0,0
17.12.2017 11:00:00 3,5 -0,5 4,4 1,5 2,2 6,3 3,5 7 4 14 7 N 1016,3 70 43 0,0
17.12.2017 10:00:00 2,0 -0,1 1,2 0,4 2,3 6,3 3,5 8 4 16 8 N 1015,6 70 5 0,0
17.12.2017 09:00:00 1,4 -0,6 -0,6 0,4 2,4 6,3 3,5 10 5 16 9 N 1014,4 70 0 0,0
17.12.2017 08:00:00 0,7 -1,1 -1,7 0,9 2,4 6,3 3,4 7 4 19 10 NNW 1013,1 70 0 0,0
17.12.2017 07:00:00 1,4 0,3 1,2 1,3 2,4 6,3 3,4 13 7 23 13 NW 1012,3 70 0 0,0
17.12.2017 06:00:00 1,2 0,6 1,0 1,1 2,4 6,3 3,4 19 10 29 16 WZW 1011,5 25 0 0,0
17.12.2017 05:00:00 1,3 0,1 1,1 1,1 2,5 6,3 3,4 20 11 28 15 W 1010,8 30 0 0,0
17.12.2017 04:00:00 1,5 -0,2 1,2 1,1 2,5 6,3 3,4 26 14 40 22 WNW 1010,2 63 0 0,0
17.12.2017 03:00:00 1,9 -1,5 1,0 1,1 2,5 6,3 3,4 9 5 29 16 N 1009,6 70 0 0,0
17.12.2017 02:00:00 1,9 1,1 1,7 1,4 2,5 6,3 3,4 26 14 32 17 WNW 1009,1 26 0 0,1
17.12.2017 01:00:00 1,9 1,0 1,4 1,1 2,5 6,3 3,4 20 11 30 16 W 1008,5 17 0 0,0
17.12.2017 00:00:00 1,6 0,9 1,3 1,2 2,6 6,3 3,4 21 12 30 16 WZW 1008,0 38 0 0,0
16.12.2017 23:00:00 1,6 1,0 0,8 1,0 2,6 6,3 3,3 23 12 32 17 WZW 1007,6 57 0 0,0
16.12.2017 22:00:00 1,8 0,8 1,3 1,2 2,7 6,3 3,6 23 13 34 19 WZW 1007,1 70 0 0,0
16.12.2017 21:00:00 2,1 1,1 1,4 1,1 2,8 6,3 3,5 19 11 27 15 ZW 1006,7 30 0 0,0
16.12.2017 20:00:00 2,5 1,0 1,6 1,3 2,9 6,3 3,6 23 12 27 15 WZW 1006,3 70 0 0,0
16.12.2017 19:00:00 2,7 0,9 1,7 1,3 3,0 6,3 3,6 20 11 28 15 WZW 1005,8 50 0 0,0
16.12.2017 18:00:00 2,7 0,8 1,7 1,2 3,1 6,3 3,6 22 12 31 17 WZW 1005,3 57 0 0,0
16.12.2017 17:00:00 3,0 0,0 2,0 1,4 3,3 6,3 3,6 27 15 36 19 WNW 1004,8 68 0 0,0
16.12.2017 16:00:00 3,1 -0,1 2,3 1,9 3,4 6,3 3,6 30 16 37 20 W 1004,1 58 24 0,0
16.12.2017 15:00:00 3,5 -0,5 2,8 2,7 3,4 6,4 3,6 29 15 35 19 WNW 1003,3 32 54 0,0
16.12.2017 14:00:00 3,6 0,9 4,6 3,5 3,3 6,4 3,6 26 14 34 18 W 1002,9 10 40 0,0
16.12.2017 13:00:00 3,7 1,9 4,9 3,4 3,2 6,4 3,6 27 14 40 22 WZW 1002,3 8 35 0,0
16.12.2017 12:00:00 3,2 1,5 3,5 3,4 3,1 6,4 3,6 32 17 41 22 WZW 1001,9 10 41 0,0
16.12.2017 11:00:00 3,2 1,4 4,4 2,6 3,0 6,4 3,5 34 18 43 23 WZW 1001,6 9 19 0,0
16.12.2017 10:00:00 2,9 1,4 2,8 2,2 3,0 6,4 3,4 34 18 43 23 WZW 1001,1 7 0 0,0
16.12.2017 09:00:00 2,8 1,3 2,1 2,1 3,0 6,4 3,4 35 19 44 24 WZW 1000,5 7 0 0,0
16.12.2017 08:00:00 2,6 1,5 2,2 2,2 3,1 6,4 3,4 32 17 40 22 WZW 1000,0 4,7 0 0,0
16.12.2017 07:00:00 2,7 1,3 2,5 2,1 3,1 6,4 3,4 29 16 35 19 WZW 999,9 6 0 0,0
16.12.2017 06:00:00 2,7 1,1 2,5 2,1 3,1 6,4 3,5 29 16 37 20 ZW 999,8 6 0 0,0
16.12.2017 05:00:00 2,6 1,1 2,4 2,1 3,1 6,4 3,5 29 16 41 22 WZW 999,6 6 0 0,0
16.12.2017 04:00:00 2,8 1,3 2,3 2,1 3,1 6,4 3,5 34 18 44 24 WZW 999,4 6 0 0,1
16.12.2017 03:00:00 2,7 1,2 2,2 2,3 3,1 6,4 3,4 35 19 46 25 WZW 999,2 4,2 0 0,0
16.12.2017 02:00:00 3,0 1,3 2,9 2,4 3,1 6,4 3,5 33 18 41 22 WZW 999,1 6 0 0,0
16.12.2017 01:00:00 3,0 1,4 2,8 2,4 3,1 6,4 3,5 32 17 39 21 WZW 998,8 6 0 0,0
16.12.2017 00:00:00 2,9 1,7 2,8 2,4 3,1 6,4 3,4 30 16 36 20 WZW 998,7 4,7 0 0,0
15.12.2017 23:00:00 2,8 1,8 2,6 2,3 3,1 6,4 3,5 29 15 38 20 WZW 998,3 4,4 0 0,0
15.12.2017 22:00:00 2,8 1,6 2,5 2,3 3,1 6,4 3,5 29 16 34 18 WZW 998,1 5 0 0,0
15.12.2017 21:00:00 2,8 1,6 2,6 2,4 3,1 6,4 3,5 25 13 30 16 WZW 997,9 6 0 0,0
15.12.2017 20:00:00 2,7 1,6 2,3 2,4 3,1 6,4 3,5 25 13 31 17 ZW 997,7 2,4 0 0,0
15.12.2017 19:00:00 2,7 1,3 2,5 2,3 3,2 6,4 3,5 25 14 29 16 WZW 997,0 8 0 0,0
15.12.2017 18:00:00 2,6 0,6 2,4 2,4 3,2 6,4 3,6 22 12 26 14 ZZW 996,7 13 0 0,0
15.12.2017 17:00:00 3,1 0,9 2,8 2,4 3,2 6,4 3,7 22 12 28 15 ZW 996,4 14 0 0,0
15.12.2017 16:00:00 3,1 0,9 2,9 2,5 3,2 6,4 3,7 23 12 30 16 WZW 995,9 14 0 0,0
15.12.2017 15:00:00 3,3 0,5 3,0 2,7 3,1 6,4 3,6 24 13 31 17 WZW 995,2 21 0 0,0
15.12.2017 14:00:00 3,3 0,3 3,2 2,9 3,0 6,4 3,7 24 13 35 19 ZW 994,6 25 0 0,0
15.12.2017 13:00:00 3,5 0,1 3,6 3,0 2,9 6,4 3,7 23 12 29 16 ZW 994,2 30 31 0,0
15.12.2017 12:00:00 2,7 0,3 2,8 2,4 2,8 6,4 3,7 21 11 28 15 ZW 993,9 21 0 0,0
15.12.2017 11:00:00 2,6 0,0 2,6 1,9 2,8 6,4 3,6 22 12 28 15 ZW 993,9 27 0 0,0
15.12.2017 10:00:00 1,7 0,2 1,4 1,2 2,9 6,4 3,5 24 13 32 17 ZW 993,4 15 42 0,0
15.12.2017 09:00:00 2,0 0,5 1,2 1,4 3,0 6,4 3,6 26 14 30 16 ZW 992,8 15 0 0,0
15.12.2017 08:00:00 2,6 0,7 2,2 2,2 3,0 6,4 3,7 24 13 32 17 ZZW 992,2 16 0 0,0
15.12.2017 07:00:00 2,9 1,1 2,7 2,2 3,0 6,5 3,8 26 14 34 18 ZZW 991,8 15 0 0,0
15.12.2017 06:00:00 3,1 1,1 2,9 2,2 3,0 6,5 3,9 25 14 31 17 ZZW 991,2 15 0 0,0
15.12.2017 05:00:00 3,1 1,2 2,9 2,2 3,0 6,5 3,8 25 13 35 19 ZW 991,0 15 0 0,0
15.12.2017 04:00:00 2,9 1,1 2,7 2,0 3,0 6,5 3,8 28 15 37 20 ZW 990,5 18 0 0,0
15.12.2017 03:00:00 2,8 0,8 2,5 1,9 3,0 6,5 3,7 30 16 40 22 ZW 990,2 24 0 0,0
15.12.2017 02:00:00 2,5 0,5 2,3 1,8 3,0 6,5 3,8 32 17 41 22 ZW 990,2 24 0 0,0
15.12.2017 01:00:00 2,3 0,4 1,9 1,9 3,1 6,5 3,8 33 18 40 22 ZW 990,0 17 0 0,0
15.12.2017 00:00:00 3,0 1,0 2,7 2,0 3,2 6,5 3,8 31 17 45 24 ZW 989,7 23 0 0,0
14.12.2017 23:00:00 2,9 0,8 2,2 2,0 3,2 6,5 3,8 39 21 49 26 WZW 989,1 22 0 0,0
14.12.2017 22:00:00 3,1 1,4 2,4 2,3 3,3 6,5 3,9 39 21 51 27 WZW 988,7 21 0 0,0
14.12.2017 21:00:00 2,9 1,6 2,4 2,5 3,3 6,5 4,0 37 20 48 26 ZW 988,5 17 0 0,1
14.12.2017 20:00:00 3,2 1,1 2,7 2,4 3,3 6,5 4,0 41 22 51 28 ZW 988,0 16 0 0,0
14.12.2017 19:00:00 3,5 1,1 3,1 2,5 3,3 6,5 3,9 40 21 50 27 ZW 987,9 31 0 0,0
14.12.2017 18:00:00 3,5 1,4 3,3 2,6 3,4 6,5 4,0 42 23 55 30 ZW 987,8 29 0 0,0
14.12.2017 17:00:00 3,9 1,5 3,2 2,8 3,4 6,5 4,0 44 24 55 30 ZW 987,4 49 0 0,0
14.12.2017 16:00:00 4,2 1,7 3,8 3,1 3,4 6,5 4,0 44 24 57 31 WZW 987,1 18 0 0,0
14.12.2017 15:00:00 4,4 1,8 4,1 3,1 3,3 6,5 4,0 43 23 62 34 WZW 986,4 25 0 0,0
14.12.2017 14:00:00 4,4 1,8 4,3 3,3 3,2 6,5 3,9 43 23 56 30 WZW 985,6 30 0 0,0
14.12.2017 13:00:00 4,3 1,6 4,1 3,2 3,1 6,5 3,9 45 24 59 32 WZW 985,3 24 10 0,0
14.12.2017 12:00:00 4,4 1,6 4,5 3,3 3,0 6,5 3,9 50 27 64 35 WZW 984,8 20 5 0,0
14.12.2017 11:00:00 4,4 1,7 4,2 2,9 2,9 6,6 3,8 54 29 69 37 WZW 983,7 30 41 0,0
14.12.2017 10:00:00 4,3 1,6 3,9 2,5 2,8 6,6 3,7 59 32 74 40 ZW 982,7 30 14 0,0
14.12.2017 09:00:00 4,0 2,2 3,5 2,3 2,7 6,6 3,6 53 28 65 35 ZW 981,9 39 0 0,0
14.12.2017 08:00:00 3,1 2,1 2,5 1,8 2,7 6,6 3,6 51 28 63 34 ZW 981,3 39 0 0,8
14.12.2017 07:00:00 1,4 0,9 1,1 1,5 2,8 6,6 3,5 47 26 58 31 ZZW 981,2 4,0 0 0,7
14.12.2017 06:00:00 1,7 1,0 1,3 1,7 2,8 6,6 3,6 30 16 51 27 Z 981,5 9 0 0,5
14.12.2017 05:00:00 1,8 1,1 1,5 1,9 2,8 6,6 3,7 31 17 49 26 Z 982,4 8 0 0,2
14.12.2017 04:00:00 2,6 1,2 2,0 2,0 2,7 6,6 3,6 30 16 48 26 Z 984,0 8 0 0,0
14.12.2017 03:00:00 2,7 1,1 2,0 2,0 2,7 6,6 3,6 29 15 46 25 Z 985,6 24 0 0,0
14.12.2017 02:00:00 2,4 1,0 1,9 1,9 2,7 6,6 3,6 32 17 51 28 Z 987,0 27 0 0,0
14.12.2017 01:00:00 2,4 0,9 1,8 1,8 2,6 6,6 3,5 35 19 57 31 Z 988,5 33 0 0,0
14.12.2017 00:00:00 2,3 1,0 1,7 1,7 2,6 6,6 3,5 37 20 55 30 Z 989,6 22 0 0,0
13.12.2017 23:00:00 2,3 1,1 1,8 1,7 2,6 6,6 3,5 33 18 57 31 Z 991,0 12 0 0,1
13.12.2017 22:00:00 1,9 0,9 1,5 1,6 2,6 6,6 3,6 33 18 54 29 Z 992,3 7 0 0,4
13.12.2017 21:00:00 2,0 0,6 1,4 1,6 2,5 6,6 3,6 35 19 56 31 Z 993,8 8 0 0,0
13.12.2017 20:00:00 3,4 -0,7 3,0 1,5 2,5 6,6 3,6 38 20 62 33 Z 995,0 42 0 0,0
13.12.2017 19:00:00 3,2 -0,5 2,6 1,2 2,6 6,6 3,6 31 17 57 31 Z 996,7 44 0 0,0
13.12.2017 18:00:00 2,7 -0,3 2,2 1,1 2,6 6,6 3,5 31 17 50 27 Z 998,1 31 0 0,0
13.12.2017 17:00:00 2,6 -0,6 1,7 0,8 2,7 6,7 3,5 32 17 55 30 Z 999,4 33 0 0,0
13.12.2017 16:00:00 2,5 -0,8 1,5 1,2 2,8 6,7 3,5 33 18 55 30 Z 1001,1 30 0 0,0
13.12.2017 15:00:00 2,6 -1,0 1,9 1,8 2,9 6,7 3,7 35 19 55 30 Z 1002,3 27 51 0,0
13.12.2017 14:00:00 2,6 -1,1 2,7 2,4 2,8 6,7 3,8 36 20 53 29 Z 1003,6 9 60 0,0
13.12.2017 13:00:00 2,8 -0,5 3,6 2,5 2,7 6,7 3,8 31 17 49 26 Z 1005,1 12 58 0,0
13.12.2017 12:00:00 2,6 -0,5 2,4 2,2 2,6 6,7 3,8 37 20 49 26 ZZW 1006,6 9 52 0,0
13.12.2017 11:00:00 2,2 -0,6 2,6 1,6 2,6 6,7 3,8 36 20 55 30 ZZW 1007,9 6 60 0,0
13.12.2017 10:00:00 1,9 -0,8 1,3 0,8 2,7 6,7 3,8 36 20 50 27 ZZW 1008,5 10 60 0,0
13.12.2017 09:00:00 2,1 -0,5 1,1 0,9 2,7 6,7 3,9 38 20 48 26 ZZW 1009,3 17 8 0,0
13.12.2017 08:00:00 2,3 -0,7 1,9 1,5 2,7 6,7 4,0 36 20 53 29 ZW 1009,8 16 0 0,0
13.12.2017 07:00:00 2,4 -0,4 2,2 1,6 2,7 6,7 4,0 38 21 48 26 ZW 1010,0 17 0 0,0
13.12.2017 06:00:00 2,4 0,0 2,2 1,5 2,7 6,7 4,1 35 19 53 28 ZW 1010,3 13 0 0,0
13.12.2017 05:00:00 2,4 0,1 2,1 1,4 2,7 6,7 4,1 42 23 57 31 ZW 1010,1 13 0 0,0
13.12.2017 04:00:00 2,1 0,3 1,8 1,1 2,8 6,7 4,1 47 25 56 30 WZW 1010,2 15 0 0,0
13.12.2017 03:00:00 1,9 0,5 1,2 0,9 2,9 6,7 4,1 44 24 53 29 ZW 1009,8 13 0 0,0
13.12.2017 02:00:00 1,7 0,5 1,2 1,2 3,0 6,7 4,2 37 20 47 25 ZW 1009,4 10 0 0,0
13.12.2017 01:00:00 1,6 0,6 0,9 1,1 3,1 6,7 4,1 37 20 49 27 WZW 1008,9 9 0 0,0
13.12.2017 00:00:00 1,8 0,5 1,1 1,2 3,3 6,7 4,1 42 23 57 31 WZW 1008,6 10 0 0,0
12.12.2017 23:00:00 2,3 0,9 1,5 1,4 3,4 6,7 4,0 40 22 53 28 WZW 1008,0 13 0 0,0
12.12.2017 22:00:00 3,3 -0,3 2,5 1,8 3,5 6,7 4,2 43 23 53 29 W 1007,2 40 0 0,0
12.12.2017 21:00:00 3,1 0,0 2,6 2,2 3,6 6,7 4,5 42 23 52 28 W 1006,1 36 0 0,0
12.12.2017 20:00:00 3,5 -0,3 2,6 2,3 3,7 6,7 4,5 41 22 54 29 WNW 1004,7 46 0 0,0
12.12.2017 19:00:00 3,4 0,6 2,7 2,5 3,7 6,7 4,5 41 22 51 28 WNW 1003,1 37 0 0,1
12.12.2017 18:00:00 2,6 1,4 2,0 2,6 3,8 6,7 4,5 38 21 55 30 WNW 1001,4 31 0 0,3
12.12.2017 17:00:00 2,6 1,8 2,2 2,8 3,9 6,7 4,5 46 25 60 33 W 999,4 9 0 1,0
12.12.2017 16:00:00 2,9 1,7 2,4 3,0 4,0 6,7 4,4 44 24 56 30 W 997,6 9 0 0,7
12.12.2017 15:00:00 3,1 2,3 2,8 3,3 4,0 6,7 4,4 37 20 54 29 W 996,0 28 0 0,5

tt = temperatuur
td = dauwpunt
tt 5cm = temperatuur 5cm
tt -5cm = temperatuur -5cm
tt -20cm = temperatuur -20cm
tt -100cm = temperatuur -100cm
tw = water temperatuur
ff = windsnelheid
fx = windstoten
dd = windrichting
ppp = luchtdruk
vv = zicht
sd = Zonneschijnduur
rr = neerslag

Weerstations in de omgeving